QPF
0.00 0.00 0.00 0.00 0.00 0.00 0.00 0.00 0.00 0.00 0.00 0.00 0.00 0.00 0.00 0.00 0.00 0.00 0.00 0.00 0.00 0.00 0.00 0.00 0.00 0.00 0.00 0.00 0.00 0.00 0.00 0.00 0.00 0.00 0.00 0.00 0.00 0.00 0.00 0.00 0.00 0.02 0.02 0.00
0.00 0.00 0.00 0.00 0.00 0.00 0.00 0.00 0.00 0.00 0.00 0.00 0.00 0.00 0.00 0.00 0.00 0.00 0.00 0.00 0.00 0.00 0.00 0.00 0.00 0.00 0.00 0.00 0.00 0.00 0.00 0.00 0.00 0.00 0.00 0.00 0.00 0.00 0.00 0.00 0.00 0.00 0.00 0.00
0.00 0.00 0.00 0.00 0.00 0.00 0.00 0.00 0.00 0.00 0.00 0.00 0.00 0.00 0.00 0.00 0.00 0.00 0.00 0.00 0.00 0.00 0.00 0.00 0.00 0.00 0.00 0.00 0.00 0.00 0.00 0.00 0.00 0.00 0.00 0.00 0.00 0.00 0.00 0.00 0.00 0.00 0.00 0.00
0.00 0.00 0.00 0.00 0.00 0.00 0.00 0.00 0.00 0.00 0.00 0.00 0.00 0.00 0.00 0.00 0.00 0.00 0.00 0.00 0.00 0.00 0.00 0.00 0.00 0.00 0.00 0.00 0.00 0.00 0.00 0.00 0.00 0.00 0.00 0.00 0.00 0.00 0.00 0.00 0.00 0.00 0.00 0.00
0.00 0.00 0.00 0.00 0.00 0.00 0.00 0.00 0.00 0.00 0.00 0.00 0.00 0.00 0.00 0.00 0.00 0.00 0.00 0.00 0.00 0.00 0.00 0.00 0.00 0.00 0.00 0.00 0.00 0.00 0.00 0.00 0.00 0.00 0.00 0.00 0.00 0.00 0.00 0.00 0.00 0.00 0.00 0.01
0.00 0.00 0.00 0.00 0.00 0.00 0.00 0.00 0.00 0.00 0.00 0.00 0.00 0.00 0.00 0.00 0.00 0.00 0.00 0.00 0.00 0.00 0.00 0.00 0.00 0.00 0.00 0.00 0.00 0.00 0.00 0.00 0.00 0.00 0.00 0.00 0.00 0.00 0.00 0.00 0.00 0.00 0.00 0.00
0.00 0.00 0.00 0.00 0.00 0.00 0.00 0.00 0.00 0.00 0.00 0.00 0.00 0.00 0.00 0.00 0.00 0.00 0.00 0.00 0.00 0.00 0.00 0.00 0.00 0.00 0.00 0.00 0.00 0.00 0.00 0.00 0.00 0.00 0.00 0.00 0.00 0.00 0.00 0.00 0.00 0.00 0.00 0.00
0.00 0.00 0.00 0.00 0.00 0.00 0.00 0.00 0.00 0.00 0.00 0.00 0.00 0.00 0.00 0.00 0.00 0.00 0.00 0.00 0.00 0.00 0.00 0.00 0.00 0.00 0.00 0.00 0.00 0.00 0.00 0.00 0.00 0.00 0.00 0.00 0.00 0.00 0.00 0.00 0.00 0.00 0.00 0.00
0.00 0.00 0.00 0.00 0.00 0.00 0.00 0.00 0.00 0.00 0.00 0.00 0.00 0.00 0.00 0.00 0.00 0.00 0.00 0.00 0.00 0.00 0.00 0.00 0.00 0.00 0.00 0.00 0.00 0.00 0.00 0.00 0.00 0.00 0.00 0.00 0.00 0.00 0.00 0.00 0.00 0.00 0.00 0.00
0.00 0.00 0.00 0.00 0.00 0.00 0.00 0.00 0.00 0.00 0.00 0.00 0.00 0.00 0.00 0.00 0.00 0.00 0.00 0.00 0.00 0.00 0.00 0.00 0.00 0.00 0.00 0.00 0.00 0.00 0.00 0.00 0.00 0.00 0.00 0.00 0.00 0.00 0.00 0.00 0.00 0.00 0.00 0.00
0.00 0.00 0.00 0.00 0.00 0.00 0.00 0.00 0.00 0.00 0.00 0.00 0.00 0.00 0.00 0.00 0.00 0.00 0.00 0.00 0.00 0.00 0.00 0.00 0.00 0.00 0.00 0.00 0.00 0.00 0.00 0.00 0.00 0.00 0.00 0.00 0.00 0.00 0.00 0.00 0.00 0.00 0.00 0.00
0.00 0.00 0.00 0.00 0.00 0.00 0.00 0.00 0.00 0.00 0.00 0.00 0.00 0.00 0.00 0.00 0.00 0.00 0.00 0.00 0.00 0.00 0.00 0.00 0.00 0.00 0.00 0.00 0.00 0.00 0.00 0.00 0.00 0.00 0.00 0.00 0.00 0.00 0.00 0.00 0.00 0.00 0.00 0.00
0.02 0.01 0.00 0.00 0.00 0.00 0.00 0.00 0.00 0.00 0.00 0.00 0.00 0.00 0.00 0.00 0.00 0.00 0.00 0.00 0.00 0.00 0.00 0.00 0.00 0.00 0.00 0.00 0.00 0.00 0.00 0.00 0.00 0.00 0.00 0.00 0.00 0.00 0.00 0.00 0.00 0.00 0.00 0.00
0.07 0.00 0.00 0.00 0.00 0.00 0.00 0.00 0.00 0.00 0.00 0.00 0.00 0.00 0.00 0.00 0.00 0.00 0.00 0.00 0.00 0.00 0.00 0.00 0.00 0.00 0.00 0.00 0.00 0.00 0.00 0.00 0.00 0.00 0.00 0.00 0.00 0.00 0.00 0.00 0.00 0.00 0.00 0.00
0.01 0.00 0.00 0.00 0.00 0.00 0.00 0.00 0.00 0.00 0.00 0.00 0.00 0.00 0.00 0.00 0.00 0.00 0.00 0.00 0.00 0.00 0.00 0.00 0.00 0.00 0.00 0.00 0.00 0.00 0.00 0.00 0.00 0.00 0.00 0.00 0.00 0.00 0.00 0.00 0.00 0.00 0.00 0.00
0.01 0.00 0.00 0.00 0.00 0.00 0.00 0.00 0.00 0.00 0.00 0.00 0.00 0.00 0.00 0.01 0.00 0.00 0.00 0.00 0.00 0.00 0.00 0.00 0.00 0.00 0.00 0.00 0.00 0.00 0.00 0.00 0.00 0.00 0.00 0.00 0.00 0.00 0.00 0.00 0.00 0.00 0.00 0.01
0.00 0.00 0.01 0.01 0.02 0.00 0.00 0.00 0.00 0.00 0.00 0.00 0.00 0.00 0.00 0.02 0.04 0.03 0.00 0.00 0.00 0.00 0.00 0.00 0.00 0.00 0.00 0.00 0.00 0.00 0.00 0.00 0.00 0.00 0.00 0.00 0.00 0.00 0.00 0.00 0.00 0.00 0.00 0.00
0.00 0.00 0.01 0.01 0.02 0.00 0.00 0.00 0.01 0.01 0.03 0.02 0.00 0.00 0.01 0.01 0.02 0.07 0.10 0.01 0.00 0.00 0.00 0.00 0.00 0.00 0.00 0.00 0.00 0.00 0.00 0.00 0.00 0.00 0.00 0.00 0.00 0.00 0.00 0.00 0.00 0.00 0.00 0.00
0.00 0.00 0.01 0.01 0.01 0.01 0.01 0.02 0.06 0.08 0.13 0.09 0.00 0.00 0.01 0.01 0.03 0.03 0.08 0.11 0.02 0.00 0.00 0.00 0.00 0.00 0.00 0.00 0.00 0.00 0.00 0.00 0.00 0.00 0.00 0.00 0.00 0.00 0.00 0.00 0.00 0.00 0.00 0.00
0.00 0.00 0.00 0.01 0.02 0.01 0.01 0.02 0.03 0.06 0.10 0.13 0.04 0.02 0.00 0.00 0.02 0.05 0.06 0.09 0.05 0.00 0.00 0.00 0.00 0.00 0.00 0.00 0.00 0.00 0.00 0.00 0.00 0.00 0.00 0.00 0.00 0.00 0.00 0.00 0.00 0.00 0.00 0.00
0.00 0.00 0.00 0.00 0.01 0.00 0.00 0.03 0.06 0.11 0.07 0.08 0.03 0.01 0.01 0.00 0.00 0.01 0.02 0.06 0.06 0.00 0.00 0.00 0.00 0.00 0.00 0.00 0.00 0.00 0.00 0.00 0.00 0.00 0.00 0.00 0.00 0.00 0.00 0.00 0.00 0.00 0.00 0.00
0.00 0.00 0.00 0.00 0.00 0.01 0.00 0.04 0.04 0.04 0.03 0.03 0.01 0.01 0.01 0.00 0.00 0.00 0.01 0.03 0.06 0.02 0.00 0.00 0.00 0.00 0.00 0.00 0.00 0.00 0.00 0.00 0.00 0.00 0.00 0.00 0.00 0.00 0.00 0.00 0.00 0.00 0.00 0.00
0.00 0.00 0.00 0.00 0.00 0.01 0.01 0.01 0.01 0.01 0.00 0.01 0.00 0.00 0.00 0.00 0.00 0.00 0.01 0.03 0.07 0.05 0.02 0.01 0.00 0.01 0.00 0.00 0.00 0.00 0.00 0.00 0.00 0.00 0.00 0.00 0.00 0.00 0.00 0.00 0.00 0.00 0.00 0.00
0.00 0.00 0.01 0.00 0.00 0.00 0.00 0.01 0.00 0.00 0.00 0.00 0.00 0.00 0.00 0.00 0.00 0.00 0.00 0.01 0.02 0.04 0.07 0.10 0.03 0.06 0.03 0.00 0.00 0.00 0.00 0.00 0.00 0.00 0.00 0.00 0.00 0.00 0.00 0.00 0.00 0.00 0.00 0.00
0.00 0.00 0.00 0.00 0.00 0.00 0.00 0.00 0.00 0.00 0.00 0.00 0.00 0.00 0.00 0.00 0.00 0.00 0.00 0.00 0.00 0.01 0.01 0.02 0.01 0.05 0.03 0.02 0.00 0.00 0.00 0.00 0.00 0.00 0.00 0.00 0.00 0.00 0.00 0.00 0.00 0.00 0.00 0.00
0.00 0.00 0.00 0.00 0.00 0.00 0.00 0.00 0.00 0.00 0.00 0.00 0.00 0.00 0.00 0.00 0.00 0.00 0.00 0.00 0.00 0.00 0.00 0.00 0.00 0.00 0.03 0.03 0.01 0.00 0.00 0.00 0.00 0.00 0.00 0.00 0.00 0.00 0.00 0.00 0.00 0.00 0.00 0.00
MSLP
1007.91 1008.11 1006.63 1006.21 1007.03 1007.19 1006.68 1006.25 1005.34 1004.64 1004.26 1003.88 1003.26 1002.19 1001.20 1001.11 1001.01 1000.53 999.66 999.77 999.15 998.72 998.31 998.06 997.91 998.02 998.21 998.55 999.02 999.36 999.73 1000.35 1000.89 1001.83 1002.63 1003.39 1003.94 1004.56 1004.93 1005.16 1005.45 1005.80 1006.34 1006.65
1008.17 1006.53 1006.55 1007.24 1007.41 1007.53 1007.20 1006.58 1005.52 1005.34 1004.54 1003.68 1003.31 1002.05 1001.18 1000.74 1000.19 999.79 999.34 999.08 998.68 998.52 998.12 997.77 997.79 998.02 998.05 998.37 998.89 999.39 999.71 1000.39 1000.91 1001.55 1002.37 1002.97 1003.72 1004.36 1004.54 1004.86 1005.33 1005.68 1005.99 1006.40
1007.58 1006.77 1007.01 1007.34 1007.12 1006.89 1006.35 1006.22 1006.09 1005.99 1005.22 1003.70 1003.86 1002.70 1001.44 1000.09 999.55 998.80 998.68 998.17 998.01 997.97 997.84 997.70 998.02 998.02 998.22 998.55 999.04 999.51 999.95 1000.35 1000.97 1001.45 1002.32 1003.22 1003.80 1004.40 1004.86 1005.18 1005.46 1005.61 1005.82 1006.13
1007.20 1006.83 1006.74 1006.72 1006.63 1006.78 1006.01 1006.23 1006.20 1006.15 1005.98 1004.16 1004.39 1002.35 1001.27 999.62 998.44 998.28 998.17 997.97 997.90 997.38 997.20 997.32 997.72 998.25 998.40 998.91 999.25 999.49 1000.52 1000.80 1001.16 1001.59 1002.43 1003.21 1004.05 1004.64 1004.82 1004.99 1005.22 1005.50 1005.87 1006.22
1006.39 1006.39 1006.54 1006.60 1006.08 1005.98 1005.35 1005.93 1005.86 1005.95 1005.63 1005.48 1004.37 1004.16 997.76 999.12 997.76 997.56 997.45 997.26 996.82 996.54 996.83 997.01 997.50 998.04 998.63 999.06 999.48 999.90 1000.52 1001.21 1001.55 1001.90 1002.55 1003.40 1004.13 1004.48 1004.78 1005.04 1005.40 1005.72 1005.97 1006.08
1006.55 1006.72 1006.41 1006.02 1005.77 1005.80 1005.86 1005.71 1005.95 1005.93 1006.00 1005.33 1004.03 1004.06 996.62 997.72 996.84 996.82 996.66 996.44 996.13 996.09 996.16 996.64 997.35 998.15 998.83 999.28 999.83 1000.24 1000.96 1001.55 1001.83 1002.30 1002.88 1003.49 1004.12 1004.59 1005.06 1005.45 1005.72 1005.98 1006.11 1006.13
1006.82 1006.49 1005.84 1005.60 1005.63 1005.63 1005.99 1006.59 1006.66 1006.44 1006.00 1003.54 1003.74 1003.13 996.96 995.89 995.45 995.68 996.03 995.95 995.90 995.74 996.45 997.11 997.38 998.21 999.08 999.60 999.94 1000.51 1001.18 1001.78 1001.97 1002.55 1003.18 1003.54 1004.15 1004.46 1004.87 1005.39 1005.70 1006.01 1006.17 1006.21
1007.38 1006.65 1005.63 1005.26 1005.60 1005.90 1005.76 1006.20 1005.93 1005.70 1005.20 1004.19 1002.99 1000.02 996.48 997.25 995.68 995.40 994.87 995.12 995.03 995.52 996.19 996.96 997.39 997.93 998.64 999.44 1000.04 1000.60 1001.28 1001.85 1002.13 1002.72 1003.27 1003.67 1004.07 1004.54 1004.98 1005.30 1005.54 1005.75 1005.89 1005.94
1007.78 1006.99 1006.08 1005.56 1005.44 1005.87 1005.50 1005.32 1005.62 1005.76 1004.98 1004.57 1001.83 999.17 997.07 995.81 995.28 994.95 994.40 994.87 994.74 995.42 995.99 996.77 997.43 998.02 999.10 999.58 1000.09 1000.63 1001.18 1001.88 1002.28 1002.78 1003.27 1003.81 1004.12 1004.49 1004.83 1005.11 1005.25 1005.44 1005.58 1005.73
1008.46 1007.95 1006.80 1006.12 1005.56 1005.01 1005.34 1005.29 1005.52 1005.64 1005.31 1004.12 1001.14 999.19 996.73 995.35 994.76 994.06 994.15 994.06 994.47 995.39 996.35 997.08 997.77 998.54 998.99 999.79 1000.31 1000.94 1001.16 1001.78 1002.46 1002.78 1003.36 1003.85 1004.15 1004.34 1004.66 1005.01 1005.34 1005.39 1005.49 1005.62
1009.22 1008.92 1008.02 1007.21 1006.10 1005.24 1005.47 1005.11 1005.23 1005.16 1004.74 1003.16 1001.02 997.70 996.08 995.03 994.13 993.68 993.22 992.82 993.94 995.11 995.95 996.76 997.57 998.43 999.13 999.78 1000.44 1001.08 1001.35 1002.00 1002.55 1002.94 1003.51 1003.92 1004.23 1004.44 1004.69 1005.09 1005.27 1005.35 1005.43 1005.51
1009.91 1009.60 1008.99 1007.94 1006.53 1005.83 1005.75 1005.60 1005.74 1005.48 1004.37 1002.76 1000.91 996.50 995.66 994.84 993.94 993.58 993.35 993.10 993.79 994.63 995.53 996.33 997.57 998.32 999.03 999.74 1000.53 1001.04 1001.50 1002.06 1002.52 1002.98 1003.54 1003.93 1004.28 1004.51 1004.86 1005.15 1005.23 1005.30 1005.40 1005.50
1010.38 1010.17 1009.82 1008.08 1006.23 1005.88 1006.05 1005.83 1005.74 1005.12 1004.14 1002.53 1001.52 996.43 995.75 995.14 994.12 993.10 994.03 993.39 994.14 995.05 995.79 996.53 997.66 998.40 999.07 999.70 1000.43 1000.92 1001.44 1001.97 1002.45 1003.02 1003.55 1004.01 1004.31 1004.62 1004.98 1005.18 1005.19 1005.27 1005.39 1005.57
1010.62 1010.63 1010.20 1009.48 1008.12 1007.44 1006.65 1005.85 1005.80 1005.53 1004.55 1002.44 1000.49 998.82 996.34 995.56 994.25 993.12 993.75 993.99 994.09 994.74 995.43 996.43 997.46 998.14 998.91 999.54 1000.15 1000.73 1001.34 1001.77 1002.41 1002.94 1003.54 1003.87 1004.27 1004.65 1004.98 1005.14 1005.14 1005.23 1005.43 1005.63
1010.69 1010.48 1009.87 1008.78 1007.92 1007.36 1006.46 1005.56 1005.27 1005.14 1004.48 1003.50 1001.37 1000.00 997.45 996.15 994.58 993.21 993.27 993.86 994.15 994.75 995.49 996.27 996.95 997.76 998.58 999.12 999.97 1000.54 1001.07 1001.69 1002.27 1002.86 1003.40 1003.65 1004.20 1004.57 1004.85 1005.10 1005.10 1005.31 1005.54 1005.73
1010.52 1010.31 1009.84 1008.47 1007.22 1006.26 1005.50 1004.73 1004.64 1004.11 1003.69 1002.83 1001.71 999.85 997.35 995.77 994.23 992.76 992.47 992.97 993.54 994.10 995.00 995.87 996.76 997.51 998.32 998.77 999.56 1000.25 1000.90 1001.58 1002.10 1002.65 1003.09 1003.48 1003.96 1004.41 1004.82 1005.14 1005.31 1005.56 1005.81 1006.04
1010.28 1010.22 1009.70 1007.69 1006.74 1004.75 1004.80 1003.60 1003.34 1002.80 1002.26 1001.76 1000.77 999.06 997.35 995.93 995.28 993.57 993.38 992.26 992.92 993.63 994.49 995.26 996.10 996.97 997.70 998.39 999.13 999.97 1000.62 1001.32 1001.96 1002.50 1002.93 1003.29 1003.82 1004.29 1004.78 1005.13 1005.52 1005.86 1006.14 1006.39
1008.88 1009.23 1009.12 1007.75 1006.63 1005.28 1003.54 1003.05 1002.52 1002.28 1001.36 1000.98 1000.28 998.65 997.75 996.14 996.72 994.03 993.93 993.74 993.19 993.50 994.36 995.03 995.79 996.78 997.38 998.10 998.96 999.71 1000.43 1001.15 1001.76 1002.33 1002.80 1003.19 1003.68 1004.14 1004.77 1005.20 1005.68 1006.03 1006.39 1006.70
1007.69 1008.50 1008.65 1007.54 1005.86 1004.48 1003.61 1004.21 1003.87 1002.95 1001.39 1001.17 1000.54 997.45 996.50 996.14 995.06 995.22 994.92 994.71 993.79 993.19 993.73 994.36 995.29 996.13 996.92 997.74 998.70 999.49 1000.33 1000.99 1001.56 1002.15 1002.50 1003.06 1003.58 1004.17 1004.78 1005.27 1005.74 1006.08 1006.54 1006.99
1006.81 1007.34 1008.39 1007.48 1006.39 1004.79 1004.80 1004.70 1004.19 1003.91 1002.53 1001.86 1001.17 998.97 996.61 996.38 996.12 997.17 996.18 994.92 994.02 993.41 993.46 994.07 994.99 995.88 996.65 997.49 998.38 999.29 1000.10 1000.75 1001.32 1001.84 1002.23 1002.77 1003.39 1003.94 1004.71 1005.12 1005.63 1006.03 1006.52 1006.94
1007.38 1007.54 1007.42 1007.06 1006.68 1005.48 1004.80 1003.96 1002.69 1003.30 1004.62 1003.25 1001.75 999.81 998.44 997.61 996.73 997.16 996.56 995.46 994.10 993.63 993.53 993.77 994.58 995.28 996.10 997.07 998.04 999.04 999.76 1000.34 1000.77 1001.35 1002.01 1002.66 1003.30 1003.83 1004.49 1005.14 1005.60 1006.06 1006.69 1007.24
1008.30 1007.67 1006.94 1006.81 1006.17 1006.41 1005.41 1002.41 1003.61 1005.51 1004.42 1003.34 1002.50 1001.32 1000.19 998.19 997.54 998.19 997.05 996.02 994.83 993.97 993.60 994.04 994.70 995.38 996.24 996.89 997.74 998.72 999.44 999.79 1000.30 1001.08 1001.80 1002.58 1003.35 1004.05 1004.66 1005.18 1005.75 1006.23 1006.77 1007.29
1008.51 1008.49 1008.08 1007.91 1007.48 1007.05 1006.53 1006.14 1005.78 1006.02 1005.24 1003.97 1003.13 1001.49 999.58 998.63 999.02 998.27 997.33 996.46 995.75 994.68 994.18 994.34 994.95 995.68 996.38 996.84 997.48 998.35 998.92 999.57 1000.22 1001.08 1001.86 1002.62 1003.40 1004.05 1004.67 1005.26 1005.87 1006.45 1006.87 1007.24
1008.69 1008.40 1008.20 1008.40 1007.83 1007.31 1006.12 1005.64 1005.21 1005.50 1004.80 1003.38 1002.71 1002.03 1000.44 999.43 998.75 997.58 997.34 996.94 996.14 995.17 995.10 994.87 995.33 996.29 996.95 997.22 997.51 997.73 998.49 999.25 1000.09 1001.02 1001.78 1002.53 1003.35 1004.26 1004.84 1005.40 1005.89 1006.32 1006.81 1007.17
1009.60 1008.68 1008.19 1007.61 1006.79 1005.46 1004.94 1005.22 1004.76 1003.92 1003.69 1002.87 1001.84 1000.38 999.07 999.33 998.80 998.45 997.19 996.54 996.24 996.26 995.84 995.47 995.21 996.15 996.72 997.20 997.67 997.77 998.11 998.94 999.98 1000.73 1001.53 1002.33 1003.13 1003.88 1004.81 1005.49 1006.07 1006.15 1006.32 1006.43
1009.46 1009.08 1008.03 1007.02 1006.95 1006.91 1005.90 1005.31 1004.39 1003.82 1002.94 1002.51 1001.73 1000.41 999.40 999.36 999.27 998.48 997.43 996.95 996.47 996.06 995.83 995.45 994.92 996.09 996.40 997.01 997.50 997.64 997.84 998.53 999.56 1000.56 1001.30 1002.03 1002.90 1003.77 1004.53 1005.32 1006.23 1006.40 1006.34 1006.40
Thickness
5617 5604 5630 5657 5657 5661 5668 5666 5667 5684 5699 5702 5700 5706 5731 5743 5741 5745 5765 5767 5775 5786 5791 5795 5803 5800 5800 5798 5793 5789 5786 5780 5774 5764 5753 5745 5736 5730 5724 5719 5715 5710 5700 5693
5593 5615 5646 5644 5636 5638 5641 5642 5654 5669 5688 5693 5696 5700 5722 5735 5741 5752 5762 5766 5775 5774 5780 5790 5792 5790 5794 5794 5787 5782 5780 5772 5767 5760 5751 5743 5734 5726 5722 5717 5710 5705 5699 5690
5585 5618 5629 5621 5622 5627 5636 5637 5647 5647 5668 5689 5678 5673 5696 5730 5740 5756 5758 5772 5774 5770 5777 5782 5782 5784 5785 5782 5778 5775 5770 5766 5761 5756 5747 5737 5730 5722 5716 5710 5704 5700 5695 5687
5577 5602 5607 5610 5608 5616 5618 5642 5644 5644 5645 5647 5677 5646 5690 5726 5741 5750 5756 5761 5761 5772 5780 5780 5778 5775 5775 5772 5770 5768 5759 5756 5754 5750 5741 5732 5721 5712 5709 5705 5701 5695 5689 5683
5580 5586 5583 5584 5606 5617 5628 5635 5638 5639 5637 5641 5652 5632 5721 5721 5732 5746 5755 5757 5768 5780 5777 5776 5773 5771 5768 5764 5762 5759 5754 5748 5746 5742 5736 5724 5716 5710 5706 5701 5696 5689 5684 5678
5562 5563 5572 5586 5601 5605 5621 5621 5623 5630 5625 5611 5651 5638 5722 5719 5737 5746 5754 5757 5771 5777 5778 5775 5769 5765 5758 5757 5753 5750 5744 5740 5739 5734 5727 5718 5711 5704 5699 5693 5686 5680 5676 5672
5538 5548 5570 5582 5581 5593 5597 5589 5578 5585 5590 5630 5653 5644 5720 5738 5752 5750 5748 5754 5764 5772 5766 5761 5762 5757 5752 5748 5746 5742 5738 5734 5733 5727 5719 5714 5706 5702 5696 5688 5681 5675 5670 5666
5521 5530 5558 5573 5567 5569 5577 5579 5578 5583 5589 5622 5650 5658 5711 5727 5753 5755 5764 5767 5771 5770 5763 5760 5759 5756 5750 5746 5742 5739 5734 5730 5727 5720 5714 5709 5703 5697 5691 5685 5679 5674 5670 5666
5513 5525 5549 5558 5567 5563 5571 5578 5599 5590 5610 5603 5643 5680 5712 5735 5746 5751 5758 5757 5764 5761 5759 5757 5753 5749 5742 5741 5738 5735 5731 5726 5721 5715 5710 5703 5699 5694 5687 5682 5677 5673 5669 5665
5514 5510 5539 5546 5554 5567 5571 5590 5574 5575 5577 5587 5633 5658 5684 5716 5732 5745 5745 5757 5760 5755 5750 5748 5745 5741 5739 5735 5732 5728 5728 5722 5715 5712 5705 5699 5695 5690 5683 5677 5672 5669 5666 5663
5504 5501 5521 5530 5538 5552 5557 5568 5573 5578 5584 5603 5619 5656 5702 5718 5730 5743 5755 5763 5760 5754 5751 5747 5743 5738 5735 5733 5728 5723 5722 5715 5710 5707 5700 5695 5689 5685 5679 5672 5669 5666 5664 5661
5493 5487 5494 5515 5536 5550 5551 5556 5556 5556 5579 5602 5629 5666 5712 5720 5730 5743 5746 5758 5760 5756 5753 5747 5740 5736 5732 5729 5723 5720 5716 5711 5708 5703 5696 5691 5686 5681 5675 5669 5666 5664 5661 5660
5484 5475 5473 5500 5530 5536 5536 5544 5551 5558 5582 5598 5598 5667 5710 5712 5723 5744 5733 5751 5753 5749 5747 5742 5735 5731 5728 5726 5721 5718 5713 5709 5705 5699 5692 5686 5682 5677 5671 5666 5663 5661 5660 5657
5480 5471 5477 5466 5502 5509 5516 5536 5543 5545 5552 5596 5619 5651 5692 5701 5716 5733 5729 5739 5747 5747 5745 5738 5733 5730 5726 5725 5721 5716 5711 5709 5702 5695 5689 5686 5679 5673 5669 5664 5662 5660 5657 5654
5469 5470 5489 5495 5501 5504 5514 5531 5538 5541 5555 5563 5612 5624 5660 5682 5710 5730 5728 5736 5740 5740 5738 5736 5733 5729 5727 5725 5719 5715 5712 5706 5699 5694 5689 5685 5679 5673 5668 5664 5661 5658 5653 5650
5471 5477 5478 5488 5505 5512 5518 5537 5537 5550 5559 5578 5599 5621 5671 5687 5707 5725 5735 5740 5741 5741 5738 5736 5732 5729 5725 5725 5720 5715 5711 5703 5698 5694 5689 5684 5679 5673 5667 5663 5657 5652 5648 5646
5462 5463 5476 5495 5506 5526 5520 5539 5545 5560 5574 5589 5595 5631 5667 5679 5692 5711 5727 5746 5744 5742 5739 5738 5734 5730 5729 5726 5722 5714 5710 5703 5698 5693 5689 5685 5679 5673 5666 5662 5654 5648 5644 5641
5481 5472 5480 5487 5503 5515 5540 5549 5558 5563 5588 5598 5611 5640 5655 5675 5671 5706 5716 5728 5739 5741 5737 5735 5734 5730 5729 5727 5720 5715 5709 5703 5697 5693 5689 5686 5680 5673 5666 5659 5651 5646 5642 5639
5498 5491 5479 5498 5519 5531 5543 5530 5540 5558 5587 5593 5602 5653 5669 5674 5686 5693 5702 5709 5729 5741 5741 5740 5737 5734 5731 5727 5719 5715 5708 5702 5698 5693 5691 5686 5680 5672 5665 5658 5651 5646 5643 5638
5509 5504 5483 5495 5511 5531 5518 5514 5532 5546 5576 5584 5598 5623 5655 5662 5656 5660 5685 5707 5720 5737 5742 5740 5738 5734 5731 5727 5720 5713 5707 5701 5698 5695 5692 5689 5682 5675 5666 5660 5652 5648 5644 5641
5499 5493 5495 5503 5510 5521 5517 5514 5549 5564 5559 5568 5589 5612 5630 5643 5657 5666 5679 5698 5718 5728 5736 5742 5739 5735 5733 5727 5720 5712 5709 5703 5703 5700 5696 5688 5682 5676 5670 5662 5656 5651 5645 5639
5486 5496 5509 5503 5526 5525 5506 5539 5545 5532 5551 5563 5576 5599 5612 5639 5651 5654 5670 5688 5705 5716 5731 5736 5733 5732 5730 5726 5721 5713 5709 5710 5707 5702 5698 5689 5681 5678 5671 5665 5658 5653 5647 5642
5498 5488 5491 5486 5494 5497 5500 5509 5520 5526 5541 5550 5566 5594 5618 5633 5634 5650 5664 5679 5693 5707 5720 5728 5727 5725 5724 5724 5720 5714 5714 5711 5706 5701 5696 5688 5682 5678 5673 5667 5661 5655 5650 5647
5492 5494 5493 5486 5496 5500 5509 5516 5523 5528 5537 5555 5569 5587 5607 5621 5637 5652 5663 5672 5685 5699 5708 5719 5721 5715 5712 5717 5718 5721 5718 5715 5707 5700 5696 5690 5683 5676 5673 5669 5665 5660 5654 5649
5486 5488 5492 5499 5509 5520 5526 5523 5527 5541 5549 5558 5574 5598 5614 5620 5633 5643 5663 5673 5684 5689 5698 5708 5718 5712 5712 5714 5713 5717 5720 5716 5707 5702 5698 5692 5687 5682 5676 5672 5669 5666 5664 5662
5486 5485 5491 5500 5508 5503 5511 5519 5530 5537 5553 5560 5575 5595 5609 5618 5625 5641 5657 5668 5680 5689 5698 5707 5715 5710 5713 5712 5712 5717 5721 5718 5710 5703 5699 5695 5689 5684 5680 5674 5667 5662 5664 5664